Wind_Speed
85 86 86 77 71 74 80 83 86 89 88 86 84 82 84 92 100 105 107 106 105 103 102 101 100 99 99 100 100 98 98 97 96 94 93 91 89 87 87 87 86 85 84 84 83 82 82 82 81 81 81 81
86 83 84 84 79 79 82 83 84 87 88 89 89 86 84 87 92 100 105 104 102 102 102 101 101 101 100 100 100 99 99 98 97 95 94 93 91 89 88 87 86 85 85 84 83 82 82 82 81 80 80 80
86 82 80 82 85 83 81 81 81 82 84 86 89 89 90 90 89 92 97 99 100 101 101 102 102 102 101 101 101 100 99 98 98 96 95 94 93 92 91 89 87 86 85 84 84 83 82 82 82 81 80 81
83 80 77 79 84 83 79 77 79 80 78 80 86 88 89 90 89 86 86 91 98 101 102 102 104 103 102 102 102 102 100 99 98 97 96 95 95 94 93 91 90 88 85 84 84 83 83 83 83 82 82 82
81 79 75 76 81 81 76 71 74 76 73 75 82 86 86 83 83 82 82 86 91 97 102 104 105 104 103 103 103 103 101 100 99 98 98 98 97 96 94 94 93 91 88 86 85 84 83 83 83 83 83 83
79 78 73 71 76 81 78 70 68 70 71 76 80 84 85 77 69 70 75 81 84 89 96 102 104 104 104 104 104 103 102 101 101 100 101 100 99 98 96 96 95 94 92 90 88 87 86 85 85 85 85 85
75 74 70 68 72 77 78 72 66 66 72 79 82 85 88 79 67 62 65 69 74 80 88 96 102 104 103 103 103 103 102 102 102 102 102 101 100 99 99 98 97 95 94 93 92 91 89 88 88 87 87 86
72 70 67 67 69 71 72 70 68 69 75 81 85 89 90 86 77 68 65 65 66 73 83 91 98 102 103 102 103 103 103 103 103 103 102 102 101 101 100 99 99 97 96 95 93 92 91 90 89 88 86 85
70 68 65 65 68 70 68 67 70 73 79 82 86 91 91 90 87 79 73 69 66 69 77 86 93 98 101 101 102 103 104 104 103 103 103 103 103 102 101 100 100 99 98 96 95 94 92 91 89 88 86 85
67 67 63 63 67 72 71 68 72 77 81 83 86 88 88 88 87 83 78 71 66 67 72 80 87 93 98 99 100 102 103 104 104 103 103 103 103 102 101 101 100 100 98 97 96 94 93 92 90 88 87 86
66 66 62 62 67 75 75 71 73 77 79 82 85 86 85 84 82 82 80 73 68 68 70 75 82 88 93 97 98 100 102 102 103 103 104 104 103 102 102 101 101 100 99 98 96 95 94 92 91 90 88 87
66 66 62 63 70 76 76 74 75 76 76 76 80 83 82 82 82 82 80 76 71 70 71 72 77 83 89 93 95 98 100 101 102 103 104 104 103 103 102 101 101 100 99 98 97 96 95 93 92 91 90 88
65 64 63 65 73 78 77 78 78 77 76 75 77 81 82 81 82 82 81 81 77 71 71 72 74 79 85 89 92 94 96 98 100 102 103 103 104 103 102 102 101 100 99 98 98 97 95 94 93 92 91 89
63 63 64 67 75 81 81 81 81 79 79 80 79 80 82 82 81 82 83 85 83 74 71 73 74 77 81 85 88 90 92 95 98 100 101 102 103 103 103 102 101 101 100 99 98 97 96 94 93 92 90 88
62 63 66 70 78 83 83 83 82 80 79 80 79 80 81 83 83 85 86 88 87 79 71 72 74 75 78 82 85 88 91 92 94 96 98 100 101 102 103 103 102 101 101 100 99 97 95 94 93 92 90 88
62 64 68 74 81 85 86 83 82 81 80 79 79 80 82 84 86 89 91 90 90 85 75 73 74 75 77 81 83 87 90 91 91 92 94 96 98 100 101 102 102 102 101 101 100 98 96 94 93 93 92 90
63 67 73 79 84 87 88 85 83 82 82 81 80 81 84 88 90 92 93 92 91 89 82 76 76 76 77 79 82 85 88 88 88 88 89 91 93 95 98 100 101 102 101 101 100 100 98 97 95 94 93 92
66 72 78 82 84 85 88 89 86 84 84 84 84 86 90 92 95 96 96 95 92 91 89 81 77 79 79 78 80 82 84 84 84 84 85 86 88 90 94 97 100 101 102 102 101 101 100 99 98 96 95 94
69 76 81 83 84 81 84 91 92 89 87 86 88 89 92 95 98 99 98 97 95 93 93 84 77 77 76 76 79 80 81 82 82 83 83 83 84 86 89 93 97 100 102 103 102 102 101 101 101 100 98 97
73 77 80 83 85 80 80 87 91 91 88 86 87 87 90 95 98 99 97 97 94 90 90 83 75 72 68 69 77 81 81 81 81 82 82 83 83 85 87 90 94 97 100 102 103 103 102 102 102 102 101 100
75 78 80 83 86 83 81 83 85 87 87 86 86 84 87 92 95 96 93 92 89 83 82 77 69 68 65 64 70 78 80 80 80 80 80 81 82 83 85 88 91 94 98 100 102 103 103 103 103 103 103 102
78 80 81 82 84 84 83 82 82 86 87 86 85 84 87 90 92 91 88 87 84 78 76 71 66 66 66 66 67 73 77 78 79 78 78 79 80 82 84 86 89 92 96 98 101 102 103 104 104 104 104 104
80 83 84 83 83 84 85 84 82 84 85 84 85 86 89 90 90 90 86 84 82 77 72 68 67 68 67 68 69 72 75 76 76 76 77 77 78 80 83 86 88 91 94 96 98 100 102 103 104 105 106 106
82 84 86 85 84 85 87 87 86 85 85 85 86 88 91 90 89 88 86 84 81 77 72 67 67 67 66 69 71 73 74 73 70 71 74 75 76 79 82 84 87 90 92 94 96 97 99 100 102 103 105 106
84 85 86 86 87 88 89 89 90 90 89 88 88 89 92 92 90 88 85 83 80 77 72 69 67 66 67 69 71 73 75 74 71 71 73 75 76 78 81 83 86 88 91 93 95 96 96 97 98 100 102 104
86 86 87 88 88 90 92 93 93 92 92 92 91 90 91 92 92 91 88 84 81 78 74 70 69 68 69 69 70 72 74 75 75 75 76 76 76 78 80 83 86 89 91 93 94 94 95 95 96 97 99 101
90 89 89 89 90 91 93 95 95 93 93 94 94 93 93 92 93 93 92 88 83 80 75 72 70 69 69 70 71 72 73 75 76 78 78 76 77 79 81 84 87 90 91 92 92 93 93 94 95 96 97 99
93 93 92 91 92 94 95 96 96 96 96 96 97 96 96 95 94 93 92 88 83 80 76 73 72 71 71 71 72 73 75 76 77 78 79 78 79 82 84 86 88 89 90 90 89 90 91 93 94 95 96 97
95 96 95 94 94 96 96 96 98 98 98 98 98 97 96 96 94 93 92 89 84 82 79 76 74 74 74 74 74 75 76 77 78 79 81 82 83 84 86 87 88 89 88 87 85 85 86 89 90 92 93 92
95 98 98 97 97 97 97 97 99 99 99 100 101 100 99 97 94 92 92 91 88 86 84 81 78 76 76 77 77 78 78 78 79 80 82 83 85 87 87 88 89 89 89 87 84 83 83 84 85 86 86 86
92 97 100 100 100 99 98 99 100 100 100 101 102 102 101 99 95 93 92 92 90 89 87 85 82 79 78 78 79 80 80 80 81 81 83 84 86 88 89 89 89 90 89 87 86 85 84 84 84 84 84 83
Wind_Direction
245 242 240 241 242 239 239 242 244 246 247 246 246 248 249 246 244 243 243 244 244 245 246 246 246 246 246 247 247 248 249 249 250 250 250 251 251 252 253 253 254 256 257 258 259 261 262 264 265 266 267 268
247 244 240 239 240 240 238 239 243 247 248 247 246 246 248 249 248 245 243 243 244 244 245 246 246 247 247 247 247 247 248 249 250 250 251 251 251 252 252 253 254 255 256 257 258 260 261 263 264 265 267 268
246 245 242 240 239 240 241 239 240 244 248 251 250 248 247 249 250 248 246 244 243 243 244 245 246 246 246 247 248 248 248 248 249 250 251 251 251 251 252 253 253 254 255 257 258 259 260 262 263 264 266 267
247 245 241 239 238 239 243 242 237 241 249 254 255 253 250 249 249 250 250 246 243 242 242 242 244 244 245 246 247 247 248 248 248 249 250 251 251 251 252 252 253 254 255 256 258 259 260 261 263 264 265 267
248 247 242 238 237 236 240 241 236 238 246 252 256 256 255 252 249 250 251 249 246 243 242 241 241 242 243 244 245 246 247 248 248 249 249 250 250 251 251 252 253 253 254 255 257 259 260 261 263 264 266 267
247 247 245 240 237 236 236 238 234 235 241 247 252 255 255 254 252 251 252 251 250 247 244 243 242 241 242 242 243 244 245 246 247 248 249 249 250 251 251 252 252 253 254 255 256 258 259 261 262 264 265 267
247 246 245 241 237 235 235 236 234 233 237 242 247 251 253 252 251 252 252 252 252 250 246 243 242 241 241 242 243 244 244 245 246 247 248 249 250 250 251 252 252 253 253 254 255 257 258 260 262 263 265 266
247 246 243 240 236 232 231 231 231 232 235 239 244 247 250 251 250 248 250 255 254 251 248 243 241 240 240 241 242 243 244 244 245 246 247 249 250 250 251 251 252 253 253 254 255 256 258 259 261 262 264 265
244 243 241 238 234 229 226 226 226 229 233 237 242 246 249 253 254 249 248 253 255 252 249 245 242 240 240 240 240 241 242 243 244 245 246 247 249 250 251 251 252 252 253 254 255 256 257 259 260 261 263 264
241 241 238 234 230 225 223 225 227 229 233 237 241 246 249 252 255 253 249 248 251 251 249 247 244 241 240 240 240 241 241 242 243 244 245 246 247 248 250 251 252 252 253 253 254 255 256 258 259 260 262 263
237 237 234 229 225 223 223 225 229 231 234 238 241 246 249 250 251 253 252 248 248 249 248 247 246 243 240 239 240 240 241 242 243 244 245 245 246 247 248 250 252 252 253 253 254 254 255 256 257 259 260 261
233 232 228 223 219 222 223 223 227 230 232 235 238 242 246 248 249 250 252 251 248 247 246 245 245 245 243 241 240 240 241 241 242 243 244 245 246 246 247 248 250 252 253 254 254 255 255 256 256 257 258 260
231 228 223 218 216 219 220 221 224 226 228 231 234 238 242 246 248 250 250 251 249 245 244 244 244 245 245 244 242 241 241 241 242 242 243 244 245 246 247 247 249 250 252 253 254 255 255 256 256 257 258 259
226 223 218 214 214 217 218 219 222 224 227 231 234 237 240 243 247 249 250 250 249 244 243 244 244 244 246 246 245 243 242 242 242 242 243 243 244 245 246 247 248 249 250 251 253 254 255 256 256 256 257 258
221 218 214 212 212 214 216 218 222 225 227 231 234 237 239 242 245 248 250 251 251 246 241 242 245 246 246 247 247 245 244 242 242 242 243 243 243 244 245 246 247 248 249 250 251 252 254 255 256 256 256 256
216 212 209 209 210 212 215 218 222 225 227 230 233 237 239 242 244 247 249 251 252 249 242 239 244 247 248 248 247 247 245 244 243 243 243 243 243 243 244 245 246 247 248 248 249 250 251 253 254 255 255 255
212 208 206 208 209 211 214 217 222 224 227 230 233 237 240 242 244 246 248 249 250 252 248 242 242 246 249 250 249 249 248 246 245 245 245 244 244 244 244 244 245 246 247 247 248 249 249 250 252 253 254 255
208 206 206 208 209 211 215 217 220 224 227 231 234 238 241 243 244 245 247 248 249 251 252 248 244 245 248 249 249 249 249 247 246 245 245 245 244 244 244 244 245 245 246 246 247 247 248 249 250 251 253 254
206 205 206 207 207 211 217 219 221 225 229 233 236 239 242 243 244 245 246 248 249 251 253 252 250 249 248 246 244 244 245 244 243 243 243 243 243 243 243 243 244 245 245 245 246 246 247 248 249 250 251 252
204 205 206 207 206 209 215 219 222 225 228 232 234 237 240 242 242 244 246 249 251 252 253 254 253 250 248 246 242 240 241 241 241 241 242 242 242 242 242 242 243 244 244 245 245 246 246 247 248 249 250 251
203 204 205 207 207 209 213 217 220 223 225 228 230 233 237 240 242 243 245 248 250 252 254 254 253 249 248 248 244 240 240 239 240 241 242 242 242 242 242 242 243 243 244 244 245 245 246 246 247 248 249 250
202 203 204 207 209 212 214 215 217 220 223 226 229 233 236 239 241 243 244 247 249 251 252 251 249 250 251 250 246 241 240 239 240 240 241 242 242 242 242 243 243 243 244 244 245 245 246 246 247 247 248 249
202 203 205 208 211 213 214 214 217 220 223 227 231 234 237 239 241 242 243 245 248 249 250 248 247 250 251 250 246 241 239 239 240 241 241 242 242 242 243 243 243 244 244 245 245 246 246 247 247 248 248 249
203 204 206 209 212 213 215 215 218 221 223 228 231 234 236 237 239 241 242 244 246 247 247 246 247 249 248 247 245 241 238 237 238 240 241 242 242 243 243 243 243 244 245 245 246 246 247 247 247 248 249 249
203 204 206 209 212 214 215 217 219 222 224 227 230 233 235 236 237 239 241 242 244 244 245 246 246 247 246 246 245 243 240 237 236 237 239 240 241 243 243 244 244 244 244 245 246 247 247 248 248 248 249 249
204 205 207 209 212 214 216 218 220 223 224 226 228 231 234 236 237 238 239 241 242 243 244 245 246 246 246 245 245 244 243 241 238 238 239 240 241 242 244 245 244 244 245 245 246 246 247 248 248 249 249 249
205 206 207 209 212 215 217 219 221 223 224 225 227 230 232 235 237 238 239 240 241 243 243 243 244 245 244 243 243 243 243 243 241 240 240 241 242 243 244 245 246 246 246 246 246 247 247 248 249 249 249 250
207 207 208 210 212 215 217 220 222 223 224 225 228 231 233 235 237 239 240 241 242 243 244 243 243 244 243 241 241 241 242 242 242 243 242 242 243 244 244 246 247 248 249 249 248 249 249 250 250 250 251 251
209 209 210 211 213 216 218 220 222 223 224 226 228 231 234 236 238 240 242 243 243 245 246 246 246 245 243 241 239 240 241 242 243 244 244 244 245 246 247 248 249 250 252 253 253 253 253 253 253 253 253 254
210 211 212 213 215 217 219 221 222 224 225 227 229 231 234 236 239 241 244 245 246 247 248 249 249 248 246 243 240 240 240 241 243 244 245 246 247 248 249 250 251 253 254 255 256 256 256 256 257 257 256 256
213 213 214 215 217 218 220 221 223 224 226 229 231 233 235 237 239 242 245 247 248 250 251 251 251 250 248 246 243 241 240 241 242 244 245 246 247 249 250 251 252 254 256 256 257 257 257 257 258 259 259 258
Height
10587 10594 10597 10599 10602 10605 10607 10611 10616 10615 10618 10623 10624 10626 10628 10628 10631 10634 10635 10641 10650 10656 10662 10667 10671 10675 10678 10679 10682 10687 10690 10692 10696 10699 10703 10706 10709 10710 10711 10712 10714 10716 10717 10718 10721 10722 10723 10723 10725 10727 10728 10729
10575 10583 10589 10593 10594 10594 10598 10603 10606 10608 10610 10612 10614 10619 10619 10616 10619 10622 10625 10633 10643 10649 10654 10658 10662 10665 10668 10671 10674 10679 10682 10684 10688 10692 10696 10699 10701 10703 10703 10705 10708 10709 10710 10712 10714 10716 10717 10718 10719 10722 10723 10723
10566 10573 10582 10587 10588 10587 10591 10596 10601 10601 10601 10602 10604 10609 10609 10608 10610 10612 10618 10628 10635 10639 10645 10649 10651 10655 10659 10663 10665 10670 10674 10677 10681 10684 10688 10691 10693 10694 10695 10698 10701 10702 10704 10705 10708 10710 10711 10713 10714 10716 10717 10717
10557 10564 10574 10578 10581 10584 10585 10591 10596 10595 10595 10596 10593 10595 10599 10601 10604 10607 10613 10619 10622 10626 10633 10635 10637 10644 10650 10653 10656 10660 10665 10669 10673 10676 10680 10682 10683 10685 10688 10691 10694 10696 10698 10699 10701 10704 10705 10706 10708 10709 10711 10711
10549 10555 10564 10570 10574 10578 10579 10584 10589 10590 10592 10590 10584 10585 10589 10595 10599 10604 10607 10607 10612 10616 10620 10623 10626 10633 10639 10643 10646 10650 10656 10661 10665 10668 10670 10671 10673 10677 10681 10684 10686 10689 10692 10694 10695 10697 10699 10700 10701 10703 10704 10705
10542 10546 10556 10564 10568 10570 10572 10578 10582 10585 10588 10583 10578 10578 10580 10588 10595 10599 10599 10599 10605 10608 10612 10614 10617 10623 10628 10632 10636 10641 10648 10652 10656 10658 10659 10662 10666 10671 10674 10675 10678 10681 10684 10687 10689 10691 10693 10694 10695 10697 10698 10699
10534 10540 10550 10556 10559 10563 10566 10573 10576 10579 10580 10576 10573 10572 10573 10582 10589 10592 10591 10593 10597 10599 10601 10604 10607 10613 10618 10623 10628 10633 10639 10643 10646 10647 10650 10654 10659 10663 10665 10667 10670 10673 10677 10680 10682 10684 10686 10688 10689 10691 10692 10693
10527 10534 10542 10546 10550 10556 10560 10565 10570 10572 10571 10568 10567 10566 10567 10572 10580 10586 10585 10587 10589 10589 10590 10592 10596 10601 10607 10614 10620 10624 10628 10632 10635 10639 10643 10646 10649 10653 10655 10659 10662 10665 10669 10672 10675 10677 10679 10681 10683 10684 10686 10687
10518 10525 10533 10538 10542 10548 10553 10557 10561 10564 10563 10562 10561 10560 10562 10564 10569 10576 10580 10582 10582 10581 10581 10583 10586 10590 10597 10604 10609 10613 10617 10622 10626 10631 10635 10637 10640 10643 10647 10651 10653 10657 10661 10664 10667 10670 10672 10674 10676 10678 10679 10680
10510 10516 10524 10531 10536 10540 10547 10551 10553 10556 10556 10557 10555 10553 10556 10558 10560 10564 10571 10576 10576 10575 10574 10575 10577 10581 10587 10594 10600 10604 10608 10613 10617 10622 10625 10628 10631 10636 10639 10642 10644 10648 10652 10656 10659 10663 10665 10667 10670 10671 10672 10674
10502 10507 10516 10523 10528 10533 10540 10543 10545 10548 10549 10550 10549 10546 10548 10551 10554 10554 10558 10567 10570 10569 10568 10569 10570 10573 10578 10584 10590 10594 10599 10605 10609 10613 10616 10619 10624 10627 10630 10633 10636 10640 10644 10648 10651 10655 10658 10660 10662 10664 10665 10667
10493 10499 10508 10516 10521 10526 10532 10536 10538 10538 10540 10542 10542 10540 10541 10543 10545 10546 10550 10557 10561 10562 10562 10562 10563 10565 10569 10575 10581 10585 10590 10596 10600 10604 10608 10612 10615 10618 10622 10625 10629 10632 10636 10640 10643 10646 10649 10652 10654 10656 10658 10660
10486 10493 10502 10509 10514 10520 10525 10528 10529 10529 10531 10533 10533 10533 10534 10536 10536 10538 10542 10546 10550 10554 10555 10556 10557 10558 10561 10566 10572 10578 10582 10587 10591 10595 10599 10603 10606 10610 10614 10617 10621 10624 10628 10632 10635 10638 10641 10644 10646 10648 10650 10652
10480 10487 10495 10502 10507 10513 10517 10520 10521 10522 10523 10525 10526 10527 10528 10528 10528 10529 10531 10534 10540 10547 10550 10549 10550 10552 10554 10557 10562 10568 10573 10578 10582 10586 10590 10594 10597 10601 10605 10609 10613 10617 10621 10624 10627 10630 10633 10636 10638 10640 10642 10644
10473 10481 10489 10495 10500 10506 10510 10513 10514 10515 10517 10519 10520 10521 10520 10521 10521 10520 10520 10524 10530 10538 10545 10545 10544 10546 10548 10550 10554 10558 10563 10568 10573 10577 10581 10585 10589 10593 10597 10601 10605 10609 10613 10617 10620 10623 10625 10628 10629 10631 10634 10636
10467 10475 10482 10487 10492 10498 10503 10506 10507 10508 10510 10512 10514 10513 10512 10513 10513 10511 10512 10517 10521 10527 10536 10540 10539 10540 10542 10543 10547 10550 10553 10559 10564 10569 10572 10576 10581 10585 10588 10592 10596 10601 10605 10609 10612 10615 10618 10620 10622 10623 10625 10628
10462 10469 10474 10479 10484 10490 10494 10498 10499 10501 10503 10505 10506 10505 10504 10505 10505 10504 10506 10510 10513 10517 10525 10532 10534 10535 10536 10538 10541 10543 10546 10552 10557 10561 10565 10569 10573 10577 10580 10584 10588 10592 10596 10600 10604 10607 10610 10613 10615 10615 10617 10619
10456 10462 10466 10471 10477 10483 10487 10490 10493 10495 10497 10498 10498 10497 10495 10496 10496 10497 10500 10503 10507 10510 10514 10522 10528 10528 10530 10533 10535 10538 10540 10545 10549 10553 10557 10560 10564 10568 10572 10575 10579 10582 10587 10591 10595 10599 10602 10605 10607 10608 10609 10610
10449 10454 10458 10463 10470 10476 10480 10484 10487 10489 10492 10492 10491 10490 10487 10488 10488 10490 10493 10496 10501 10505 10506 10513 10520 10522 10524 10527 10529 10531 10533 10537 10541 10544 10547 10551 10555 10559 10563 10566 10569 10573 10577 10581 10585 10590 10593 10596 10598 10599 10600 10602
10443 10448 10452 10457 10462 10467 10471 10475 10479 10482 10484 10483 10481 10481 10480 10479 10481 10484 10488 10490 10494 10498 10501 10507 10513 10516 10519 10520 10521 10524 10526 10529 10532 10536 10539 10542 10546 10549 10553 10557 10560 10563 10567 10571 10576 10580 10584 10587 10589 10590 10592 10594
10437 10442 10447 10451 10455 10459 10463 10467 10471 10474 10474 10472 10472 10473 10471 10471 10474 10478 10483 10484 10487 10493 10496 10501 10506 10509 10512 10513 10515 10518 10520 10523 10525 10528 10531 10535 10538 10542 10545 10548 10551 10554 10558 10561 10565 10569 10574 10577 10580 10581 10582 10585
10431 10436 10441 10445 10449 10453 10456 10460 10462 10463 10463 10464 10466 10466 10465 10466 10469 10473 10478 10479 10482 10486 10490 10495 10499 10501 10505 10507 10509 10512 10514 10517 10519 10522 10524 10528 10531 10534 10537 10540 10542 10545 10548 10551 10555 10559 10563 10568 10571 10572 10573 10575
10425 10431 10435 10440 10444 10448 10451 10453 10454 10454 10457 10460 10461 10460 10458 10461 10464 10467 10472 10474 10475 10479 10484 10489 10492 10494 10497 10500 10503 10505 10507 10510 10513 10515 10518 10521 10524 10527 10529 10531 10533 10535 10538 10541 10545 10550 10554 10558 10562 10564 10565 10566
10420 10426 10430 10434 10437 10441 10445 10447 10448 10449 10452 10454 10453 10452 10452 10454 10457 10460 10464 10467 10469 10472 10477 10482 10485 10488 10491 10493 10496 10498 10500 10503 10506 10509 10511 10514 10516 10518 10520 10522 10525 10527 10530 10533 10536 10540 10544 10548 10552 10556 10558 10558
10414 10419 10423 10427 10431 10435 10438 10440 10441 10443 10445 10446 10445 10444 10444 10446 10450 10454 10457 10461 10463 10466 10471 10475 10480 10482 10484 10486 10489 10491 10494 10497 10499 10500 10502 10505 10508 10509 10511 10514 10516 10519 10521 10524 10527 10530 10535 10539 10543 10546 10548 10549
10407 10412 10416 10420 10424 10428 10431 10433 10435 10437 10438 10438 10437 10436 10437 10438 10442 10446 10450 10453 10457 10461 10466 10470 10474 10477 10479 10481 10484 10486 10489 10490 10491 10492 10495 10498 10500 10502 10504 10505 10507 10509 10512 10515 10518 10522 10526 10529 10533 10536 10538 10539
10400 10404 10409 10413 10417 10421 10424 10426 10429 10431 10431 10431 10429 10428 10429 10430 10433 10438 10442 10447 10451 10456 10461 10465 10468 10471 10474 10476 10478 10480 10483 10484 10486 10487 10489 10491 10493 10495 10496 10497 10498 10500 10504 10507 10510 10514 10517 10520 10523 10526 10527 10529
10393 10397 10402 10406 10410 10413 10416 10420 10422 10423 10424 10424 10422 10422 10422 10424 10427 10431 10435 10442 10447 10451 10455 10460 10463 10466 10468 10470 10472 10474 10476 10478 10480 10481 10482 10484 10485 10487 10488 10489 10491 10493 10496 10499 10503 10508 10510 10512 10515 10516 10518 10522
10386 10390 10395 10399 10402 10406 10409 10413 10415 10416 10417 10417 10416 10417 10418 10419 10423 10426 10430 10437 10442 10445 10449 10454 10458 10460 10462 10464 10466 10468 10469 10471 10474 10475 10476 10477 10478 10479 10481 10482 10484 10487 10489 10492 10497 10502 10503 10505 10507 10508 10512 10516
10379 10383 10388 10392 10395 10399 10402 10406 10408 10410 10410 10410 10410 10412 10413 10416 10420 10424 10426 10431 10436 10439 10442 10447 10451 10455 10457 10458 10460 10461 10463 10465 10467 10468 10469 10470 10470 10471 10473 10475 10477 10479 10483 10487 10491 10494 10496 10498 10500 10501 10505 10509
10372 10377 10381 10385 10388 10392 10395 10399 10401 10403 10404 10404 10404 10406 10409 10413 10418 10421 10422 10425 10429 10432 10436 10440 10444 10448 10451 10453 10455 10456 10457 10458 10460 10461 10462 10463 10464 10465 10466 10468 10471 10473 10477 10481 10483 10485 10488 10491 10492 10493 10496 10499